• In Portugal
  • List of Countries
  • For 7 days
  • Water Temperature
  • Satellite Maps
  • Weather Map
  • Weather Widgets
  • user-avatar
    Login

    Hourly Weather Ozery

    Today, 21 September, Friday

    Time Temperature Precipitation Wind Pressure Humidity
    00:00 +18°C° 0 mm 1 mps 746 mmHg 89%
    01:00 +18°C° 0 mm 1 mps 746 mmHg 90%
    02:00 +18°C° 0 mm 1 mps 746 mmHg 91%
    03:00 +18°C° 0 mm 1 mps 746 mmHg 91%
    04:00 +16°C° 0 mm 1 mps 746 mmHg 92%
    05:00 +16°C° 0 mm 1 mps 746 mmHg 93%
    06:00 +17°C° 0 mm 2 mps 746 mmHg 89%
    07:00 +18°C° 0 mm 2 mps 747 mmHg 86%
    08:00 +19°C° 0 mm 2 mps 747 mmHg 83%
    09:00 +21°C° 0 mm 2 mps 747 mmHg 76%
    10:00 +24°C° 0 mm 3 mps 747 mmHg 69%
    11:00 +25°C° 0 mm 3 mps 747 mmHg 62%
    12:00 +26°C° 0 mm 3 mps 746 mmHg 58%
    13:00 +26°C° 0 mm 3 mps 746 mmHg 54%
    14:00 +27°C° 0 mm 3 mps 746 mmHg 50%
    15:00 +26°C° 0 mm 3 mps 746 mmHg 54%
    16:00 +25°C° 0 mm 3 mps 745 mmHg 58%
    17:00 +24°C° 0 mm 2 mps 745 mmHg 62%
    18:00 +21°C° 0 mm 3 mps 745 mmHg 65%
    19:00 +20°C° 0 mm 3 mps 745 mmHg 68%
    20:00 +19°C° 0 mm 3 mps 744 mmHg 71%
    21:00 +18°C° 0 mm 4 mps 744 mmHg 71%
    22:00 +18°C° 0 mm 4 mps 744 mmHg 72%
    23:00 +18°C° 0 mm 4 mps 744 mmHg 72%

    Tomorrow, 22 September, Saturday

    Time Temperature Precipitation Wind Pressure Humidity
    00:00 +18°C° 0 mm 4 mps 744 mmHg 73%
    01:00 +17°C° 0 mm 4 mps 743 mmHg 73%
    02:00 +17°C° 0 mm 4 mps 743 mmHg 74%
    03:00 +16°C° 0 mm 5 mps 742 mmHg 74%
    04:00 +15°C° 0 mm 5 mps 742 mmHg 74%
    05:00 +15°C° 0 mm 5 mps 742 mmHg 73%
    06:00 +16°C° 0 mm 5 mps 741 mmHg 71%
    07:00 +16°C° 0 mm 6 mps 741 mmHg 69%
    08:00 +17°C° 0 mm 6 mps 741 mmHg 67%
    09:00 +19°C° 0 mm 6 mps 741 mmHg 62%
    10:00 +21°C° 0 mm 6 mps 741 mmHg 57%
    11:00 +22°C° 0 mm 6 mps 741 mmHg 53%
    12:00 +21°C° 0 mm 5 mps 741 mmHg 56%
    13:00 +20°C° 0 mm 5 mps 741 mmHg 60%
    14:00 +19°C° 0 mm 5 mps 741 mmHg 63%
    15:00 +16°C° 0.2 mm 5 mps 741 mmHg 66%
    16:00 +14°C° 0.2 mm 5 mps 741 mmHg 68%
    17:00 +11°C° 0.2 mm 6 mps 741 mmHg 71%
    18:00 +10°C° 1 mm 5 mps 742 mmHg 76%
    19:00 +9°C° 1 mm 5 mps 742 mmHg 82%
    20:00 +8°C° 1 mm 4 mps 742 mmHg 87%
    21:00 +8°C° 0.8 mm 4 mps 742 mmHg 89%
    22:00 +9°C° 0.8 mm 3 mps 742 mmHg 90%
    23:00 +9°C° 0.8 mm 3 mps 742 mmHg 91%

    Day after tomorrow, 23 September, Sunday

    Time Temperature Precipitation Wind Pressure Humidity
    00:00 +9°C° 0.3 mm 3 mps 742 mmHg 92%
    01:00 +9°C° 0.3 mm 3 mps 742 mmHg 92%
    02:00 +9°C° 0.3 mm 3 mps 742 mmHg 93%
    03:00 +9°C° 0.1 mm 3 mps 742 mmHg 93%
    04:00 +9°C° 0.1 mm 3 mps 741 mmHg 94%
    05:00 +8°C° 0.1 mm 3 mps 741 mmHg 94%
    06:00 +9°C° 0 mm 3 mps 741 mmHg 92%
    07:00 +9°C° 0 mm 3 mps 741 mmHg 89%
    08:00 +8°C° 0 mm 4 mps 741 mmHg 87%
    09:00 +11°C° 0 mm 4 mps 741 mmHg 80%
    10:00 +12°C° 0 mm 4 mps 741 mmHg 74%
    11:00 +13°C° 0 mm 5 mps 741 mmHg 67%
    12:00 +14°C° 0.3 mm 5 mps 741 mmHg 65%
    13:00 +14°C° 0.3 mm 6 mps 740 mmHg 63%
    14:00 +14°C° 0.3 mm 6 mps 740 mmHg 61%
    15:00 +13°C° 0.1 mm 6 mps 740 mmHg 65%
    16:00 +12°C° 0.1 mm 5 mps 741 mmHg 69%
    17:00 +10°C° 0.1 mm 5 mps 741 mmHg 73%
    18:00 +10°C° 0 mm 4 mps 741 mmHg 76%
    19:00 +10°C° 0 mm 4 mps 741 mmHg 79%
    20:00 +8°C° 0 mm 4 mps 741 mmHg 83%
    21:00 +7°C° 0 mm 4 mps 742 mmHg 84%
    22:00 +7°C° 0 mm 4 mps 742 mmHg 85%
    23:00 +7°C° 0 mm 4 mps 742 mmHg 86%

    24 September, Monday

    Time Temperature Precipitation Wind Pressure Humidity
    00:00 +7°C° 0 mm 3 mps 742 mmHg 88%
    01:00 +7°C° 0 mm 3 mps 741 mmHg 89%
    02:00 +7°C° 0 mm 3 mps 741 mmHg 91%
    03:00 +5°C° 0 mm 3 mps 741 mmHg 91%
    04:00 +5°C° 0 mm 3 mps 741 mmHg 91%
    05:00 +5°C° 0 mm 3 mps 740 mmHg 91%
    06:00 +7°C° 0 mm 3 mps 740 mmHg 86%
    07:00 +8°C° 0 mm 3 mps 739 mmHg 82%
    08:00 +8°C° 0 mm 4 mps 739 mmHg 78%
    09:00 +8°C° 0.2 mm 4 mps 738 mmHg 77%
    10:00 +9°C° 0.2 mm 5 mps 737 mmHg 75%
    11:00 +9°C° 0.2 mm 6 mps 737 mmHg 74%
    12:00 +9°C° 2 mm 7 mps 736 mmHg 80%
    13:00 +7°C° 2 mm 8 mps 734 mmHg 85%
    14:00 +6°C° 2 mm 9 mps 733 mmHg 90%
    15:00 +7°C° 1.5 mm 9 mps 732 mmHg 90%
    16:00 +7°C° 1.5 mm 9 mps 730 mmHg 90%
    17:00 +7°C° 1.5 mm 9 mps 729 mmHg 91%
    18:00 +9°C° 1.3 mm 8 mps 728 mmHg 92%
    19:00 +9°C° 1.3 mm 7 mps 726 mmHg 93%
    20:00 +9°C° 1.3 mm 7 mps 725 mmHg 94%
    21:00 +10°C° 2.4 mm 6 mps 724 mmHg 94%
    22:00 +10°C° 2.4 mm 5 mps 723 mmHg 94%
    23:00 +10°C° 2.4 mm 5 mps 722 mmHg 94%

    25 September, Tuesday

    Time Temperature Precipitation Wind Pressure Humidity
    00:00 +10°C° 1.3 mm 5 mps 722 mmHg 94%
    01:00 +9°C° 1.3 mm 5 mps 721 mmHg 94%
    02:00 +9°C° 1.3 mm 5 mps 721 mmHg 94%
    03:00 +8°C° 1.6 mm 5 mps 722 mmHg 94%
    04:00 +8°C° 1.6 mm 5 mps 722 mmHg 94%
    05:00 +8°C° 1.6 mm 6 mps 722 mmHg 93%
    06:00 +6°C° 1.1 mm 7 mps 723 mmHg 91%
    07:00 +6°C° 1.1 mm 9 mps 724 mmHg 89%
    08:00 +4°C° 1.1 mm 11 mps 725 mmHg 87%
    09:00 +4°C° 1.2 mm 12 mps 726 mmHg 86%
    10:00 +4°C° 1.2 mm 12 mps 727 mmHg 85%
    11:00 +4°C° 1.2 mm 13 mps 729 mmHg 84%
    12:00 +4°C° 0.8 mm 13 mps 730 mmHg 83%
    13:00 +3°C° 0.8 mm 13 mps 731 mmHg 83%
    14:00 +3°C° 0.8 mm 12 mps 732 mmHg 82%
    15:00 +3°C° 0.4 mm 12 mps 733 mmHg 78%
    16:00 +4°C° 0.4 mm 11 mps 734 mmHg 75%
    17:00 +5°C° 0.4 mm 10 mps 735 mmHg 71%
    18:00 +3°C° 0 mm 9 mps 736 mmHg 71%
    19:00 +4°C° 0 mm 8 mps 737 mmHg 71%
    20:00 +4°C° 0 mm 7 mps 737 mmHg 71%
    21:00 +3°C° 0 mm 7 mps 738 mmHg 72%
    22:00 +3°C° 0 mm 7 mps 738 mmHg 74%
    23:00 +3°C° 0 mm 6 mps 739 mmHg 76%

    26 September, Wednesday

    Time Temperature Precipitation Wind Pressure Humidity
    00:00 +2°C° 0 mm 6 mps 739 mmHg 77%
    01:00 +2°C° 0 mm 6 mps 739 mmHg 78%
    02:00 +1°C° 0 mm 6 mps 740 mmHg 80%
    03:00 +1°C° 0 mm 6 mps 740 mmHg 80%
    04:00 +1°C° 0 mm 5 mps 740 mmHg 80%
    05:00 +1°C° 0 mm 5 mps 741 mmHg 80%
    06:00 +1°C° 0 mm 6 mps 741 mmHg 78%
    07:00 +2°C° 0 mm 7 mps 742 mmHg 75%
    08:00 +2°C° 0 mm 7 mps 742 mmHg 72%
    09:00 +3°C° 0 mm 7 mps 743 mmHg 67%
    10:00 +5°C° 0 mm 7 mps 743 mmHg 62%
    11:00 +6°C° 0 mm 7 mps 744 mmHg 57%
    12:00 +6°C° 0 mm 7 mps 744 mmHg 56%
    13:00 +6°C° 0 mm 7 mps 745 mmHg 55%
    14:00 +6°C° 0 mm 7 mps 745 mmHg 54%
    15:00 +7°C° 0 mm 6 mps 746 mmHg 56%
    16:00 +6°C° 0 mm 5 mps 746 mmHg 59%
    17:00 +6°C° 0 mm 4 mps 747 mmHg 62%
    18:00 +5°C° 0 mm 4 mps 747 mmHg 64%
    19:00 +4°C° 0 mm 3 mps 748 mmHg 67%
    20:00 +3°C° 0 mm 3 mps 748 mmHg 70%
    21:00 +2°C° 0 mm 3 mps 749 mmHg 71%
    22:00 +2°C° 0 mm 3 mps 749 mmHg 73%
    23:00 +1°C° 0 mm 3 mps 750 mmHg 75%
    Show more